Location: Stara Lesna
(49.1528°N, 20.2911°E)
Time: 17:52:55
(UTC+02:00)

Cosmos 2082 Rocket - Pass Details

Date: 21 September 2019
Orbit: 831 x 855 km, 71.0° (Epoch: 15 October)

Event Time Altitude Azimuth Distance (km) Brightness Sun altitude
Rises 01:43:48 0° 329° (NNW) 3,437 5.8 -37.6°
Reaches altitude 10° 01:46:16 10° 327° (NNW) 2,498 4.9 -37.5°
Enters shadow 01:47:20 16° 325° (NW) 2,106 4.5 -37.4°
